When you browse on this site, cookies collect data to enhance your experience and personalize the content and advertising you see.
Visit our Privacy Policy to learn more. By continuing to use the site, you agree to this use of cookies and data.
  • In United Kingdom
  • List of Countries
  • For 7 days
  • Water Temperature
  • Weather Map
  • Weather Widgets
  • user-avatar
    Login

    Hourly Weather Blagoevgrad

    Today, 19 October, Saturday

    Time Temperature Precipitation Wind Pressure Humidity
    00:00 +16°C° 0 mm 1 mps 722 mmHg 68%
    01:00 +16°C° 0 mm 1 mps 722 mmHg 69%
    02:00 +15°C° 0 mm 0 mps 721 mmHg 70%
    03:00 +14°C° 0 mm 0 mps 721 mmHg 71%
    04:00 +14°C° 0 mm 0 mps 722 mmHg 72%
    05:00 +14°C° 0 mm 0 mps 722 mmHg 72%
    06:00 +15°C° 0 mm 0 mps 722 mmHg 69%
    07:00 +16°C° 0 mm 0 mps 722 mmHg 67%
    08:00 +17°C° 0 mm 0 mps 722 mmHg 64%
    09:00 +19°C° 0 mm 0 mps 722 mmHg 58%
    10:00 +23°C° 0 mm 1 mps 723 mmHg 51%
    11:00 +25°C° 0 mm 1 mps 723 mmHg 45%
    12:00 +25°C° 0 mm 1 mps 723 mmHg 44%
    13:00 +26°C° 0 mm 1 mps 722 mmHg 42%
    14:00 +26°C° 0 mm 2 mps 722 mmHg 41%
    15:00 +25°C° 0.1 mm 1 mps 722 mmHg 45%
    16:00 +25°C° 0.1 mm 1 mps 722 mmHg 49%
    17:00 +24°C° 0.1 mm 1 mps 721 mmHg 53%
    18:00 +22°C° 0 mm 1 mps 722 mmHg 58%
    19:00 +20°C° 0 mm 1 mps 722 mmHg 63%
    20:00 +19°C° 0 mm 1 mps 722 mmHg 67%
    21:00 +18°C° 0 mm 1 mps 722 mmHg 69%
    22:00 +18°C° 0 mm 1 mps 722 mmHg 70%
    23:00 +18°C° 0 mm 1 mps 723 mmHg 71%

    Tomorrow, 20 October, Sunday

    Time Temperature Precipitation Wind Pressure Humidity
    00:00 +16°C° 0 mm 1 mps 723 mmHg 72%
    01:00 +16°C° 0 mm 1 mps 723 mmHg 73%
    02:00 +16°C° 0 mm 1 mps 723 mmHg 74%
    03:00 +15°C° 0 mm 0 mps 723 mmHg 75%
    04:00 +14°C° 0 mm 0 mps 723 mmHg 75%
    05:00 +14°C° 0 mm 0 mps 723 mmHg 75%
    06:00 +15°C° 0 mm 0 mps 723 mmHg 72%
    07:00 +16°C° 0 mm 0 mps 723 mmHg 69%
    08:00 +17°C° 0 mm 0 mps 724 mmHg 66%
    09:00 +19°C° 0 mm 0 mps 724 mmHg 59%
    10:00 +23°C° 0 mm 1 mps 724 mmHg 52%
    11:00 +25°C° 0 mm 1 mps 724 mmHg 45%
    12:00 +26°C° 0 mm 1 mps 724 mmHg 43%
    13:00 +26°C° 0 mm 1 mps 724 mmHg 41%
    14:00 +27°C° 0 mm 1 mps 724 mmHg 39%
    15:00 +26°C° 0 mm 1 mps 723 mmHg 43%
    16:00 +25°C° 0 mm 1 mps 723 mmHg 46%
    17:00 +24°C° 0 mm 1 mps 723 mmHg 50%
    18:00 +22°C° 0 mm 1 mps 723 mmHg 55%
    19:00 +21°C° 0 mm 1 mps 723 mmHg 59%
    20:00 +19°C° 0 mm 1 mps 724 mmHg 64%
    21:00 +19°C° 0 mm 1 mps 724 mmHg 65%
    22:00 +18°C° 0 mm 1 mps 724 mmHg 66%
    23:00 +18°C° 0 mm 1 mps 724 mmHg 67%

    Day after tomorrow, 21 October, Monday

    Time Temperature Precipitation Wind Pressure Humidity
    00:00 +16°C° 0 mm 0 mps 724 mmHg 68%
    01:00 +15°C° 0 mm 0 mps 724 mmHg 69%
    02:00 +15°C° 0 mm 0 mps 724 mmHg 70%
    03:00 +15°C° 0 mm 0 mps 724 mmHg 70%
    04:00 +15°C° 0 mm 0 mps 724 mmHg 71%
    05:00 +14°C° 0 mm 0 mps 724 mmHg 71%
    06:00 +15°C° 0 mm 0 mps 724 mmHg 68%
    07:00 +16°C° 0 mm 0 mps 724 mmHg 65%
    08:00 +17°C° 0 mm 0 mps 724 mmHg 62%
    09:00 +19°C° 0 mm 0 mps 725 mmHg 56%
    10:00 +23°C° 0 mm 1 mps 725 mmHg 49%
    11:00 +25°C° 0 mm 1 mps 725 mmHg 43%
    12:00 +26°C° 0 mm 1 mps 725 mmHg 41%
    13:00 +27°C° 0 mm 1 mps 725 mmHg 38%
    14:00 +27°C° 0 mm 1 mps 724 mmHg 35%
    15:00 +26°C° 0 mm 1 mps 724 mmHg 39%
    16:00 +25°C° 0 mm 1 mps 724 mmHg 42%
    17:00 +24°C° 0 mm 1 mps 724 mmHg 46%
    18:00 +22°C° 0 mm 1 mps 724 mmHg 49%
    19:00 +21°C° 0 mm 1 mps 724 mmHg 52%
    20:00 +19°C° 0 mm 1 mps 724 mmHg 55%
    21:00 +19°C° 0 mm 1 mps 724 mmHg 56%
    22:00 +18°C° 0 mm 1 mps 724 mmHg 56%
    23:00 +18°C° 0 mm 1 mps 724 mmHg 56%

    22 October, Tuesday

    Time Temperature Precipitation Wind Pressure Humidity
    00:00 +16°C° 0 mm 1 mps 724 mmHg 57%
    01:00 +16°C° 0 mm 1 mps 724 mmHg 59%
    02:00 +15°C° 0 mm 1 mps 724 mmHg 60%
    03:00 +15°C° 0 mm 1 mps 724 mmHg 61%
    04:00 +15°C° 0 mm 1 mps 724 mmHg 62%
    05:00 +14°C° 0 mm 1 mps 724 mmHg 63%
    06:00 +15°C° 0 mm 1 mps 724 mmHg 62%
    07:00 +16°C° 0 mm 1 mps 724 mmHg 61%
    08:00 +16°C° 0 mm 1 mps 725 mmHg 59%
    09:00 +19°C° 0 mm 1 mps 725 mmHg 53%
    10:00 +22°C° 0 mm 1 mps 725 mmHg 47%
    11:00 +24°C° 0 mm 1 mps 725 mmHg 41%
    12:00 +25°C° 0 mm 1 mps 725 mmHg 38%
    13:00 +26°C° 0 mm 1 mps 725 mmHg 35%
    14:00 +26°C° 0 mm 1 mps 724 mmHg 32%
    15:00 +25°C° 0 mm 1 mps 724 mmHg 35%
    16:00 +24°C° 0 mm 1 mps 724 mmHg 39%
    17:00 +23°C° 0 mm 1 mps 724 mmHg 42%
    18:00 +21°C° 0 mm 1 mps 724 mmHg 44%
    19:00 +20°C° 0 mm 1 mps 724 mmHg 46%
    20:00 +18°C° 0 mm 1 mps 724 mmHg 48%
    21:00 +18°C° 0 mm 1 mps 724 mmHg 49%
    22:00 +16°C° 0 mm 1 mps 724 mmHg 51%
    23:00 +15°C° 0 mm 1 mps 724 mmHg 52%

    23 October, Wednesday

    Time Temperature Precipitation Wind Pressure Humidity
    00:00 +15°C° 0 mm 1 mps 724 mmHg 53%
    01:00 +15°C° 0 mm 1 mps 724 mmHg 55%
    02:00 +14°C° 0 mm 1 mps 724 mmHg 56%
    03:00 +14°C° 0 mm 1 mps 724 mmHg 57%
    04:00 +14°C° 0 mm 1 mps 724 mmHg 58%
    05:00 +13°C° 0 mm 1 mps 724 mmHg 59%
    06:00 +14°C° 0 mm 1 mps 724 mmHg 58%
    07:00 +15°C° 0 mm 1 mps 724 mmHg 57%
    08:00 +16°C° 0 mm 1 mps 724 mmHg 56%
    09:00 +19°C° 0 mm 1 mps 724 mmHg 49%
    10:00 +21°C° 0 mm 1 mps 725 mmHg 43%
    11:00 +23°C° 0 mm 1 mps 725 mmHg 37%
    12:00 +24°C° 0 mm 1 mps 724 mmHg 34%
    13:00 +25°C° 0 mm 1 mps 724 mmHg 31%
    14:00 +26°C° 0 mm 1 mps 724 mmHg 28%
    15:00 +25°C° 0 mm 1 mps 724 mmHg 31%
    16:00 +24°C° 0 mm 1 mps 723 mmHg 34%
    17:00 +22°C° 0 mm 1 mps 723 mmHg 38%
    18:00 +21°C° 0 mm 1 mps 723 mmHg 38%
    19:00 +19°C° 0 mm 1 mps 723 mmHg 38%
    20:00 +18°C° 0 mm 1 mps 723 mmHg 38%
    21:00 +16°C° 0 mm 1 mps 723 mmHg 39%
    22:00 +15°C° 0 mm 1 mps 724 mmHg 39%
    23:00 +15°C° 0 mm 1 mps 724 mmHg 40%

    24 October, Thursday

    Time Temperature Precipitation Wind Pressure Humidity
    00:00 +14°C° 0 mm 1 mps 724 mmHg 41%
    01:00 +14°C° 0 mm 1 mps 724 mmHg 41%
    02:00 +13°C° 0 mm 1 mps 723 mmHg 42%
    03:00 +13°C° 0 mm 1 mps 723 mmHg 42%
    04:00 +13°C° 0 mm 1 mps 723 mmHg 42%
    05:00 +13°C° 0 mm 1 mps 723 mmHg 42%
    06:00 +13°C° 0 mm 1 mps 723 mmHg 41%
    07:00 +14°C° 0 mm 1 mps 723 mmHg 40%
    08:00 +15°C° 0 mm 1 mps 723 mmHg 39%
    09:00 +18°C° 0 mm 1 mps 723 mmHg 34%
    10:00 +21°C° 0 mm 1 mps 724 mmHg 30%
    11:00 +23°C° 0 mm 1 mps 724 mmHg 25%
    12:00 +24°C° 0 mm 1 mps 723 mmHg 23%
    13:00 +25°C° 0 mm 1 mps 723 mmHg 22%
    14:00 +26°C° 0 mm 1 mps 723 mmHg 20%
    15:00 +24°C° 0 mm 1 mps 723 mmHg 24%
    16:00 +21°C° 0 mm 0 mps 722 mmHg 28%
    17:00 +19°C° 0 mm 0 mps 722 mmHg 32%
    18:00 +18°C° 0 mm 0 mps 722 mmHg 33%
    19:00 +18°C° 0 mm 1 mps 722 mmHg 34%
    20:00 +16°C° 0 mm 1 mps 722 mmHg 35%
    21:00 +15°C° 0 mm 1 mps 722 mmHg 34%
    22:00 +15°C° 0 mm 1 mps 722 mmHg 34%
    23:00 +14°C° 0 mm 1 mps 722 mmHg 33%
    Show more